Other Surface Observations
Issued by NWS Charleston, SC

Home | Current Version | Previous Version | Text Only | Print | Product List | Glossary On
Versions: 1 2 3 4 5 6 7 8 9 10 11 12 13 14 15 16 17 18 19 20 21 22 23 24 25 26 27 28 29 30 31 32 33 34 35 36 37 38 39 40 41 42 43 44 45 46 47 48 49 50
000
SXUS52 KCHS 281325
OSOCHS

MARINE OBSERVATIONS
NATIONAL WEATHER SERVICE CHARLESTON SC
800 AM EST FRI NOV 28 2014

...DOWNTOWN CHARLESTON AND HARBOR...

CITY           SKY/WX    TMP DP  RH WIND       PRES   REMARKS
WATERFRONT PRK   N/A     39 N/A N/A N17         N/A  WCI  30
FORT JOHNSON   NOT AVBL

...LAKE MOULTRIE...

CITY           SKY/WX    TMP DP  RH WIND       PRES   REMARKS
PINOPOLIS        N/A     39  27  60 NE16      30.28F WCI  30

...LAKE AND SUPPLEMENTAL COASTAL OBSERVATIONS...

STATION/POSITION TIME  TEMP    WIND        PRES    WAVE   SWELL
                       AIR SEA DIR/SP/G            HT/PER HT/PER/DIR
                 (UTC) (F)     (DEG/KT/KT) (MB)    (FT/S) (FT/S/D)
FORT PULASKI     1300   37     360/ 10/ 12 1028.6F
SAPELO ISLAND    1300   38     350/  9     1028.0S
UPR LAKE MARION  NOT AVBL
WINYAH BAY       1300   34     340/  5     1028.0R
LAKE MURRAY      1300   33     330/  2/  4 1028.1S
ACE BASIN NERRS  1300   34      10/  3     1028.0S


...C-MAN AND BUOY OBSERVATIONS...

STATION/POSITION TIME  TEMP    WIND        PRES    WAVE   SWELL
                       AIR SEA DIR/SP/G            HT/PER HT/PER/DIR
                 (UTC) (F)     (DEG/KT/KT) (MB)    (FT/S) (FT/S/D)
BUOY 41004       1300   48 72  360/ 19/ 25 1025.9R   6/ 6   2/ 9
BUOY 41008       1300   46 63   10/ 19/ 23 1027.1R   4/ 5   2/130/ 9
FOLLY BEACH CMAN 1300   38      10/ 18/ 22 1028.5R
CAPERS NS BUOY   1200   41      30/ 17/ 21   N/A
FRIPP NS BUOY    NOT AVBL
5E ST. MARYS GA  1300      61                N/A     4/ 5


STATION/POSITION TIME  TEMP    WIND        PRES    WAVE   SWELL
                       AIR SEA DIR/SP/G            HT/PER HT/PER/DIR
                 (UTC) (F)     (DEG/KT/KT) (MB)    (FT/S) (FT/S/D)
FRYING PAN BUOY  1300   44 68  360/ 21/ 25 1026.4R   6/ 6   2/160/ 9
BUOY 41025       1300   45     330/ 21/ 25 1023.6R   6/ 5   2/ 70/ 9
CAPE LOOKOUT NC  1300   37     350/ 17/ 21 1025.9R
BUOY 41002       1151   59 72  330/ 21/ 27 1021.3R  12/ 9   2/ 10/13
BUOY 41010       1300   65 77  340/ 17/ 23 1022.4R   8/ 8   3/14
ST AUGUSTINE FL  1300   40     320/ 11/ 13 1027.6R


$$



USA.gov is the U.S. government's official web portal to all federal, state and local government web resources and services.